Vertical_Velocity
-1 -3 -3 -2 -3 3 -1 3 3 -14 3 -1 6 -2 -2 -2 -3 2 3 2 2 1 1 -0 0 1 1 1 2 -1 0 0 3 2 1 -0 -1 1 -0 -4 -2 -1 -4 -3
-14 -2 -1 -5 -10 8 -0 2 0 4 -8 5 4 3 3 2 2 2 2 1 1 1 -0 -0 -1 -2 -1 -1 -2 -2 0 1 -2 -2 -2 -1 0 -1 -3 2 2 -3 0 -1
-11 8 6 -4 -12 1 4 0 7 -2 2 -4 -1 1 1 3 3 2 1 1 2 0 -1 -1 -2 -4 -3 -1 -2 -3 -2 -3 -3 -2 1 2 1 1 4 1 -3 2 2 -2
-2 -5 -3 -3 -1 -4 -2 -2 1 -0 -2 1 0 1 1 0 0 1 0 2 1 1 2 2 2 2 1 -1 0 0 -1 -1 -0 2 4 6 7 6 6 4 3 2 2 3
-1 -1 -4 -19 -5 1 2 2 -3 2 3 3 3 3 3 1 1 -1 -0 0 -2 -2 -2 -3 -3 -3 -3 -3 -0 0 -1 -1 -1 -2 0 1 2 3 6 5 5 7 9 14
6 1 -2 0 -2 0 2 -2 -3 3 2 2 2 2 3 2 -1 -0 -2 -3 -4 -3 -2 -2 -1 -4 -6 -4 -2 1 1 3 2 -1 -3 -4 -4 3 7 1 -1 -0 -0 0
4 1 -5 -0 -3 1 6 -11 0 4 4 5 2 3 4 2 -0 -2 -0 2 2 1 -1 -3 -3 -3 -3 -2 -2 -2 -1 1 3 2 1 -2 2 1 2 -0 -3 -5 -5 0
10 3 -12 -3 4 7 3 4 4 2 1 0 1 1 -1 -0 -6 -6 -3 -1 -3 -3 -2 -3 0 -0 1 1 -2 -2 -1 -0 -1 0 2 -0 -3 -0 -1 -2 -0 2 -4 -1
-3 -1 2 3 1 -0 3 4 4 3 6 5 0 -5 -1 -2 2 1 -0 2 1 -2 -1 -1 -2 -3 -3 -3 -6 -5 -2 1 -1 -3 -5 -3 -5 -3 -6 -2 -3 -2 -2 -2
10 -1 -0 3 4 8 4 -1 -2 -1 -1 -2 -1 -2 -2 -1 0 1 1 -2 -3 -3 -3 -2 -1 4 -0 -1 -7 -7 -6 -2 -2 -4 -1 4 1 -1 -5 -5 -2 -5 -7 -3
0 5 12 4 0 -2 -1 1 2 6 1 1 2 3 2 2 -1 -0 0 1 -1 -3 -5 -3 -4 -3 0 -2 -6 -4 -4 -1 -0 -2 0 -3 1 -2 1 4 4 -4 2 -3
-4 -3 -3 -6 -2 1 5 4 1 0 3 1 -3 -2 -3 -1 -1 -3 -1 0 -4 -1 -3 -1 -3 -7 1 2 -2 -4 -9 -4 -3 -7 -3 -2 -5 -14 16 -1 5 6 3 1
5 0 5 4 1 4 1 0 -1 2 1 1 4 -1 -2 -5 -1 -4 -2 -3 -1 -4 -3 -2 -6 -8 8 2 0 -3 -4 -1 -5 -1 -2 -2 -1 -3 -21 12 0 6 5 4
4 4 8 3 -1 -2 -3 1 0 -0 1 -1 -4 -1 -1 -5 -3 -3 2 5 -1 -4 2 -0 -4 -8 4 1 -4 -1 -1 3 -5 -4 -4 -3 -0 -4 -4 -9 -8 -12 12 2
0 0 1 -1 -2 -0 -0 0 4 2 -1 1 0 -3 1 -4 -4 -2 4 0 -5 -3 -1 -3 -4 -4 6 -0 -2 -0 -0 -1 1 -1 2 0 -2 -2 -1 -2 -4 -6 -3 4
-4 -4 1 -1 -1 -2 -2 -2 -5 -3 -3 -3 -5 -2 -4 -5 -6 -4 1 1 -11 -10 1 -6 -4 1 -2 -1 0 -1 0 5 2 -1 2 2 3 -2 -1 -0 -1 -1 -1 0
6 3 1 2 -4 -2 -2 -0 -3 -4 -7 -4 -4 -4 -3 -3 -4 -3 -2 2 -3 2 -2 0 -12 -1 -1 1 -1 -4 -3 0 5 0 1 0 -1 -1 -1 -1 -2 -2 -2 3
-4 -2 -4 -6 -8 -8 -2 -1 -2 -1 -4 -6 -5 -3 -1 0 -8 -4 -2 -2 -1 2 6 -2 -1 -1 -1 -1 -2 -1 -3 -1 1 -0 1 0 -0 1 2 1 1 -2 0 2
-3 -3 2 4 3 1 -2 -3 -4 -4 -0 -0 -4 -1 -1 -1 -2 -4 -4 1 -2 -6 8 -1 -1 -1 -1 0 -0 -2 -1 -0 0 1 1 0 1 3 -0 0 -1 1 -1 -1
3 5 3 -0 1 -0 -2 3 -2 0 4 -3 -3 -2 -2 2 -0 -0 -1 -3 3 -5 -5 -2 -2 -0 0 0 1 -1 1 1 1 0 0 -1 -0 3 2 1 0 -1 -1 -1
-1 -1 -2 -3 -0 2 -2 -3 -5 -4 -2 -2 -3 -1 -2 -0 -0 -1 -2 -5 7 0 -1 -1 -1 -1 -1 0 0 0 0 -1 1 1 1 7 1 0 1 0 4 0 -1 -0
-4 -4 -1 -4 -6 -2 -1 -1 -1 -2 -2 -1 -0 -2 -3 -1 -2 1 2 -7 -0 1 -1 -2 -2 0 -1 -0 -1 -0 0 1 1 1 1 3 3 2 2 2 0 -1 -0 1
-3 -5 -3 -3 -4 -2 -1 -1 -2 -3 -0 -1 -2 -1 -2 -3 -2 -5 -2 7 -1 -1 -1 1 1 1 1 -0 0 -0 0 0 -0 -0 1 1 1 0 -1 -2 -1 -2 -2 -1
-2 -1 -1 -2 -2 -2 -2 2 2 1 -1 -0 -0 -2 -4 -4 8 0 0 -0 1 1 1 -0 0 0 -0 -0 -0 -0 0 0 0 1 1 0 -1 -1 -0 -2 -1 -1 -0 -0
-2 -1 -1 -2 -2 -2 -2 -2 -1 -1 0 2 1 0 -0 -0 -5 2 1 1 1 0 2 1 -1 -1 -1 -1 -1 0 0 0 -1 -0 0 -1 -0 -0 -0 -1 -1 -1 0 -0
-0 -0 -0 -1 -3 -3 -2 -2 -3 -1 -3 -1 2 -2 0 -0 0 -0 1 -0 -1 -1 -1 -1 0 1 1 0 1 1 0 0 0 -0 -1 -1 -0 -0 1 1 1 0 -0 -0
-0 -2 1 3 -0 -0 -0 -2 -3 0 1 -1 2 0 0 1 0 -1 -1 -1 1 1 -0 -0 0 1 1 1 0 -0 -1 -1 -1 -1 -0 -0 0 1 1 1 1 2 1 1
Height
3082 3082 3080 3079 3079 3077 3073 3071 3068 3065 3064 3072 3068 3067 3064 3062 3061 3060 3059 3056 3054 3053 3052 3051 3051 3050 3049 3047 3045 3043 3043 3042 3042 3040 3038 3037 3038 3037 3035 3033 3032 3029 3028 3026
3072 3073 3071 3068 3067 3064 3060 3059 3054 3056 3055 3061 3059 3056 3055 3055 3055 3054 3053 3051 3050 3049 3048 3046 3045 3045 3043 3042 3040 3039 3037 3035 3033 3031 3029 3029 3028 3026 3025 3023 3021 3018 3017 3015
3065 3064 3062 3057 3053 3052 3048 3046 3047 3044 3047 3050 3051 3048 3049 3048 3048 3048 3047 3046 3045 3044 3043 3042 3040 3039 3037 3036 3035 3033 3031 3029 3026 3023 3021 3019 3017 3015 3013 3011 3009 3007 3004 3002
3061 3063 3058 3046 3044 3044 3043 3040 3040 3039 3039 3041 3042 3042 3042 3042 3042 3041 3041 3040 3038 3037 3036 3034 3033 3031 3029 3027 3025 3023 3021 3019 3017 3014 3012 3009 3007 3004 3001 2999 2996 2994 2993 2990
3058 3053 3041 3042 3042 3039 3037 3035 3037 3036 3035 3036 3037 3036 3037 3036 3036 3035 3033 3032 3031 3029 3027 3025 3024 3021 3019 3016 3014 3011 3009 3007 3005 3003 3000 2998 2995 2991 2988 2985 2983 2981 2978 2976
3051 3050 3040 3035 3035 3033 3031 3029 3031 3031 3031 3031 3032 3032 3032 3030 3029 3028 3026 3025 3023 3021 3018 3015 3012 3010 3007 3005 3002 3000 2997 2993 2990 2988 2986 2983 2981 2977 2974 2971 2968 2966 2963 2961
3043 3039 3029 3029 3032 3031 3031 3031 3027 3027 3027 3027 3027 3027 3025 3023 3020 3019 3017 3015 3012 3010 3007 3005 3002 2999 2997 2994 2991 2988 2985 2982 2978 2974 2971 2968 2966 2963 2959 2956 2952 2949 2946 2944
3034 3035 3028 3023 3024 3027 3024 3021 3022 3022 3022 3021 3020 3018 3016 3015 3014 3013 3010 3007 3005 3003 2999 2995 2992 2990 2987 2983 2980 2977 2974 2970 2966 2962 2958 2954 2951 2947 2943 2939 2936 2933 2931 2930
3028 3023 3020 3019 3019 3020 3019 3018 3017 3017 3015 3013 3011 3010 3009 3007 3005 3003 3002 3000 2997 2995 2993 2990 2986 2981 2978 2974 2970 2967 2964 2959 2955 2951 2948 2944 2940 2936 2932 2929 2925 2922 2919 2917
3018 3015 3015 3014 3013 3013 3012 3011 3010 3008 3006 3005 3004 3002 3001 3000 2998 2996 2993 2991 2989 2987 2984 2982 2979 2974 2969 2964 2960 2957 2953 2949 2945 2941 2937 2934 2931 2927 2922 2919 2914 2911 2909 2905
3009 3009 3008 3005 3005 3004 3004 3003 3001 3000 2999 2998 2997 2996 2995 2994 2992 2990 2988 2985 2982 2979 2975 2972 2968 2965 2961 2956 2950 2945 2941 2937 2934 2930 2926 2922 2919 2916 2912 2910 2905 2900 2898 2894
3002 3002 3002 3000 2999 2998 2996 2995 2994 2994 2993 2992 2992 2991 2989 2988 2986 2983 2981 2977 2973 2970 2964 2960 2956 2952 2948 2944 2939 2933 2928 2925 2922 2918 2915 2911 2907 2903 2903 2898 2895 2891 2887 2883
2995 2995 2994 2992 2992 2990 2990 2990 2989 2989 2988 2988 2987 2985 2984 2981 2979 2975 2972 2967 2962 2957 2953 2948 2944 2940 2936 2931 2926 2922 2916 2913 2909 2906 2903 2899 2895 2891 2888 2887 2884 2881 2877 2874
2987 2987 2986 2986 2986 2985 2984 2985 2985 2985 2985 2983 2982 2980 2977 2973 2970 2966 2962 2957 2952 2947 2942 2937 2933 2929 2925 2920 2914 2910 2906 2903 2898 2895 2892 2888 2884 2881 2877 2873 2869 2868 2867 2863
2982 2982 2982 2982 2982 2982 2982 2982 2981 2980 2979 2977 2975 2972 2968 2964 2960 2956 2951 2945 2940 2936 2932 2927 2921 2916 2911 2906 2901 2897 2894 2891 2888 2884 2881 2877 2874 2871 2867 2863 2859 2855 2853 2852
2980 2981 2980 2980 2979 2979 2978 2976 2975 2973 2971 2969 2967 2964 2959 2953 2949 2944 2940 2934 2929 2924 2920 2914 2908 2903 2897 2892 2887 2883 2881 2878 2875 2872 2870 2867 2864 2860 2856 2852 2849 2845 2843 2841
2977 2977 2977 2976 2976 2975 2973 2971 2968 2965 2962 2959 2955 2950 2945 2941 2936 2932 2928 2923 2917 2911 2906 2900 2895 2891 2886 2881 2875 2871 2868 2866 2864 2861 2859 2856 2853 2849 2846 2842 2839 2836 2833 2831
2974 2974 2973 2971 2969 2967 2964 2962 2958 2954 2950 2946 2941 2936 2932 2927 2922 2918 2913 2908 2903 2900 2895 2890 2885 2880 2876 2871 2866 2861 2858 2855 2853 2850 2847 2845 2842 2839 2836 2833 2829 2826 2824 2822
2971 2969 2967 2964 2961 2957 2953 2950 2946 2942 2938 2933 2928 2924 2919 2915 2910 2905 2900 2895 2891 2886 2883 2879 2875 2871 2866 2862 2856 2851 2848 2845 2842 2840 2837 2834 2831 2829 2826 2823 2820 2818 2815 2813
2964 2961 2958 2955 2952 2948 2943 2939 2935 2930 2926 2920 2915 2911 2907 2902 2898 2893 2888 2884 2881 2875 2871 2868 2864 2861 2856 2852 2848 2843 2840 2836 2833 2830 2828 2825 2822 2820 2818 2816 2813 2811 2808 2806
2956 2953 2949 2946 2942 2938 2933 2929 2923 2918 2914 2909 2904 2900 2895 2891 2888 2883 2879 2875 2873 2868 2863 2859 2855 2850 2847 2843 2839 2836 2832 2829 2826 2823 2821 2818 2815 2812 2810 2807 2806 2804 2802 2799
2949 2944 2940 2936 2932 2928 2924 2918 2913 2909 2904 2900 2895 2891 2886 2882 2879 2875 2873 2867 2863 2859 2854 2850 2846 2842 2838 2835 2831 2828 2825 2822 2819 2816 2813 2811 2807 2804 2802 2801 2799 2798 2796 2794
2940 2935 2931 2926 2922 2918 2914 2909 2905 2900 2896 2892 2887 2883 2879 2875 2872 2866 2863 2862 2856 2852 2847 2842 2839 2835 2832 2828 2825 2822 2819 2816 2813 2810 2807 2804 2801 2798 2796 2795 2794 2792 2789 2787
2931 2927 2922 2918 2913 2909 2905 2902 2897 2893 2889 2884 2880 2876 2871 2868 2867 2863 2858 2855 2851 2846 2841 2836 2833 2830 2827 2825 2822 2819 2816 2813 2810 2807 2804 2801 2798 2796 2793 2791 2788 2786 2784 2782
2922 2918 2914 2910 2905 2901 2897 2893 2889 2885 2881 2878 2874 2871 2867 2863 2859 2857 2854 2850 2846 2842 2838 2834 2831 2828 2825 2822 2820 2817 2814 2812 2809 2806 2802 2799 2795 2792 2790 2787 2784 2782 2780 2778
2915 2911 2907 2903 2897 2893 2889 2886 2882 2878 2873 2871 2869 2865 2863 2860 2857 2854 2851 2848 2844 2840 2836 2833 2830 2827 2824 2821 2819 2816 2814 2811 2807 2804 2800 2797 2794 2790 2787 2785 2782 2780 2778 2776
2908 2904 2900 2897 2893 2888 2884 2879 2875 2872 2868 2865 2863 2861 2858 2856 2854 2851 2848 2845 2842 2839 2835 2832 2829 2827 2824 2821 2819 2815 2812 2809 2806 2803 2799 2796 2792 2789 2786 2783 2781 2779 2777 2774